This is the latest recevied weather packets stored in our database for station/object W2GRK-15. If no packets are shown the sender has not sent any weather packets the latest 10 day(s).
| Time | Temp. | Humidity | Pressure | Rain* | Wind** | Luminosity | Snow |
|---|---|---|---|---|---|---|---|
| 1778004448 | 28.33° C | 39% | 1009.5 hPa | 0 mm | - | 711 W/m² | - |
| 1778004384 | 28.33° C | 39% | 1009.5 hPa | 0 mm | - | 726 W/m² | - |
| 1778004226 | 27.78° C | 40% | 1009.6 hPa | 0 mm | - | 734 W/m² | - |
| 1778003304 | 27.78° C | 40% | 1009.8 hPa | 0 mm | - | 743 W/m² | - |
| 1778003240 | 27.78° C | 39% | 1009.8 hPa | 0 mm | - | 752 W/m² | - |
| 1778002821 | 28.33° C | 40% | 1009.7 hPa | 0 mm | - | 760 W/m² | - |
| 1778002579 | 28.33° C | 43% | 1009.8 hPa | 0 mm | - | 766 W/m² | - |
| 1778002466 | 27.78° C | 41% | 1009.7 hPa | 0 mm | - | 772 W/m² | - |
| 1778002337 | 27.78° C | 40% | 1009.7 hPa | 0 mm | - | 772 W/m² | - |
| 1778002096 | 27.78° C | 41% | 1009.9 hPa | 0 mm | - | 773 W/m² | - |
| 1778001322 | 27.78° C | 43% | 1009.9 hPa | 0 mm | - | 787 W/m² | - |
| 1778001016 | 27.78° C | 41% | 1009.9 hPa | 0 mm | - | 790 W/m² | - |
| 1778000967 | 27.78° C | 40% | 1009.8 hPa | 0 mm | - | 789 W/m² | - |
| 1778000745 | 27.78° C | 40% | 1009.9 hPa | 0 mm | - | 789 W/m² | - |
| 1778000701 | 27.78° C | 40% | 1010.1 hPa | 0 mm | - | 788 W/m² | - |
| 1778000547 | 27.78° C | 39% | 1010.1 hPa | 0 mm | - | 790 W/m² | - |
| 1778000306 | 27.22° C | 41% | 1010.3 hPa | 0 mm | - | 793 W/m² | - |
| 1777999516 | 27.22° C | 42% | 1010.3 hPa | 0 mm | - | 792 W/m² | - |
| 1777999423 | 27.22° C | 41% | 1010.3 hPa | 0 mm | - | 796 W/m² | - |
| 1777998678 | 26.67° C | 43% | 1010.3 hPa | 0 mm | - | 804 W/m² | - |
| 1777998324 | 27.22° C | 42% | 1010.5 hPa | 0 mm | - | 796 W/m² | - |
| 1777997970 | 27.22° C | 42% | 1010.5 hPa | 0 mm | - | 800 W/m² | - |
| 1777997776 | 26.67° C | 44% | 1010.5 hPa | 0 mm | - | 800 W/m² | - |
| 1777997728 | 26.67° C | 43% | 1010.6 hPa | 0 mm | - | 801 W/m² | - |
| 1777997378 | 26.67° C | 42% | 1010.5 hPa | 0 mm | - | 800 W/m² | - |
* Rain latest hour (hover to see other rain measurements)
** Current wind speed in m/s (hover to see current wind gust speed)